Location: ??????????
(54.8537°N, 38.8755°E)
Time: 02:09:33
(UTC+00:00)

Vanguard 2 Rocket - Pass Details

Date: 18 September 2024
Orbit: 553 x 3298 km, 32.9° (Epoch: 10 October)

Event Time Altitude Azimuth Distance (km) Brightness Sun altitude
Rises 22:37:02 0° 221° (SW) 4,327 - -31.5°
Reaches altitude 10° 22:40:20 10° 206° (SSW) 3,734 - -31.3°
Maximum altitude 22:47:45 23° 159° (SSE) 3,579 - -30.8°
Exits shadow 22:49:09 23° 151° (SSE) 3,733 9.7 -30.7°
Drops below altitude 10° 22:58:12 10° 116° (ESE) 5,443 10.8 -30.1°
Sets 23:04:28 0° 105° (ESE) 6,857 11.6 -29.7°
